Tracking 35274 objects as of 10-Sep-2026
HD Live streaming from Space Station
objects crossing your sky now

THOR ABLESTAR DEB


10-day predictions


NORAD ID: 121
Int'l Code: 1961-015F
Launch date: June 29, 1961
Source: United States (US)
Launch site: AIR FORCE EASTERN TEST RANGE (AFETR)

Note: This is SATELLITE DEBRIS
Your satellite tracking list
Your tracking list is empty




NASA's NSSDC Master Catalog

Two Line Element Set (TLE):
1   121U 61015F   26253.23738227 -.00000040  00000-0  25280-4 0  9995
2   121  66.7472 190.0865 0098700 303.3772  55.7895 14.00243137338273
Source of the keplerian elements: AFSPC